Regional Weather Roundup
Issued by NWS

Home | Current Version | Previous Version | Text Only | Print | Product List | Glossary On
Versions: 1 2 3 4 5 6 7 8 9 10 11 12 13 14 15 16 17 18 19 20 21 22 23 24 25 26 27 28 29 30 31 32 33 34 35 36 37 38 39 40 41 42 43 44 45 46 47 48 49 50
000
ASUS43 KLSX 302007
RWRMO

WEATHER SUMMARY FOR MISSOURI
NATIONAL WEATHER SERVICE SPRINGFIELD MO
300 PM CDT SAT MAY 30 2015

NOTE: "FAIR" INDICATES FEW OR NO CLOUDS BELOW 12,000 FEET WITH NO
       SIGNIFICANT WEATHER AND/OR OBSTRUCTIONS TO VISIBILITY.
       CURRENT SKY AND/OR WEATHER CONDITIONS ARE NOT AVAILABLE FOR
       CHILLICOTHE AND FARMINGTON.

MOZ001>031-035>038-043-044-053-054-302100-
...NORTHERN AND WESTERN MISSOURI...

CITY           SKY/WX    TMP DP  RH WIND       PRES   REMARKS
KANSAS CTY INT CLOUDY    60  55  83 N14       30.12S
KANSAS C DTWN  CLOUDY    61  54  77 NW8       30.11S
LEE`S SUMMIT   CLOUDY    62  55  77 NW10      30.11S
ST JOSEPH      CLOUDY    59  53  80 N16       30.14S
CHILLICOTHE      N/A     64  56  75 N10G16    30.09S
KIRKSVILLE     CLOUDY    65  59  81 N16       30.05F

$$
MOZ066>068-077>081-088>096-101>105-302100-
...SOUTHWEST MISSOURI...

CITY           SKY/WX    TMP DP  RH WIND       PRES   REMARKS
SPRINGFIELD    CLOUDY    67  62  84 NW10      30.05S
JOPLIN         CLOUDY    63  59  87 NW9       30.10F

$$
MOZ032>034-039>042-045>050-055>058-069>072-302100-
...CENTRAL MISSOURI...

CITY           SKY/WX    TMP DP  RH WIND       PRES   REMARKS
COLUMBIA       CLOUDY    71  65  81 NW15      30.00S
JEFFERSON CITY PTSUNNY   72  65  78 NW17G24   29.97F
ROLLA          PTSUNNY   71  66  84 NW8       29.96F
SEDALIA        CLOUDY    67  60  78 NW15      30.06F
WHITEMAN AFB   CLOUDY    64  59  82 N13       30.06S
WARRENSBURG    CLOUDY    61  55  82 NW12      30.08S
OSAGE BEACH    CLOUDY    70  63  78 NW7G17    30.01R

$$
MOZ051-052-059>065-302100-
...EAST CENTRAL MISSOURI...

CITY           SKY/WX    TMP DP  RH WIND       PRES   REMARKS
ST LOUIS INTL  CLOUDY    70  65  84 N7        29.94S
SPIRIT OF STL  CLOUDY    71  67  87 N9        29.93F
ST CHARLES     CLOUDY    70  67  90 NW9       29.93F

$$
MOZ072>076-082>087-097>100-106>115-302100-
...SOUTH CENTRAL AND SOUTHEAST MISSOURI...

CITY           SKY/WX    TMP DP  RH WIND       PRES   REMARKS
CAPE GIRARDEAU LGT RAIN  73  71  93 S12       29.88S
FARMINGTON     CLOUDY    68  64  88 NW7       29.96S
POPLAR BLUFF   LGT RAIN  70  67  90 W13       29.91R
WEST PLAINS    CLOUDY    75  65  70 NW12      29.99S

$$



USA.gov is the U.S. government's official web portal to all federal, state and local government web resources and services.